Regional Weather Roundup
Issued by NWS

Home | Current Version | Previous Version | Text Only | Print | Product List | Glossary Off
Versions: 1 2 3 4 5 6 7 8 9 10 11 12 13 14 15 16 17 18 19 20 21 22 23 24 25 26 27 28 29 30 31 32 33 34 35 36 37 38 39 40 41 42 43 44 45 46 47 48 49 50

000
ASUS45 KABQ 180701
RWRNM
WEATHER ROUNDUP FOR NEW MEXICO
NATIONAL WEATHER SERVICE ALBUQUERQUE NM
100 AM MDT SAT APR 18 2015

NOTE: "FAIR" MEANS FEW OR NO CLOUDS BELOW 12,000 FEET AGL WITH NO
       SIGNIFICANT WEATHER OR OBSTRUCTIONS TO VISION.

      THIS PRODUCT IS RELEASED AS TWO VERSIONS.  ONE VERSION NEAR
      THE TOP OF THE HOUR CONTAINING PRELIMINARY DATA FROM ALBUQUERQUE
      AND OTHER STATIONS.  A FINAL VERSION WITH ADDITIONAL DATA IS
      ISSUED ABOUT 10 MINUTES AFTER THE HOUR.

NMZ501-503-504-510>518-180800-
NORTHWEST PLATEAU/NORTHCENTRAL MOUNTAINS

CITY           SKY/WX    TMP DP  RH WIND       PRES   REMARKS
FARMINGTON     LGT SNOW  32  32 100 S3        30.02S FOG
SANTA FE       LGT SNOW  32  31  96 E8        30.05F FOG     WCI  25
ANGEL FIRE     FAIR      16  11  81 E5        30.03F WCI   8

$$
NMZ402-403-502-505>509-180800-
WESTCENTRAL MOUNTAINS/SOUTHWEST MOUNTAINS

CITY           SKY/WX    TMP DP  RH WIND       PRES   REMARKS
GALLUP         CLOUDY    40  22  48 SW7       30.05F
GRANTS         MOCLDY    29  20  69 S3        30.07R
SILVER CITY      N/A     37   7  28 N9        30.09S WCI  31

$$
NMZ407-409-411-412-180800-
SOUTHERN DESERTS

CITY           SKY/WX    TMP DP  RH WIND       PRES   REMARKS
DEMING         CLEAR     47   9  21 NW10      30.03S
ALAMOGORDO     PTCLDY    50  10  20 CALM      30.02S
T OR C         CLEAR     49  16  26 NW9       30.04R

$$
NMZ519>523-180800-
CENTRAL VALLEYS/CENTRAL HIGHLANDS

CITY           SKY/WX    TMP DP  RH WIND       PRES   REMARKS
ALBUQUERQUE    MOCLDY    43  29  57 N7        30.05S
DOUBLE EAGLE   PTCLDY    36  28  73 N7        30.06S WCI  31
MORIARTY ARPT  FAIR      31  23  70 N5        30.06S WCI  27
CLINES CORNERS PTCLDY    32  24  72 NW13      30.01F WCI  22
BELEN          FAIR      38  22  53 CALM      30.05S
SOCORRO        NOT AVBL

$$
NMZ524>526-539-540-180800-
SOUTHCENTRAL MOUNTAINS

CITY           SKY/WX    TMP DP  RH WIND       PRES   REMARKS
RUIDOSO        NOT AVBL

$$
NMZ527>531-180800-
NORTHEAST HIGHLANDS/NORTHEAST PLAINS

CITY           SKY/WX    TMP DP  RH WIND       PRES   REMARKS
LAS VEGAS      PTCLDY    30  23  75 W8        30.01F WCI  22
RATON          PTCLDY    34  23  64 N8        29.99F WCI  27
CLAYTON        CLEAR     40  16  37 W7        29.96F

$$
NMZ532>537-180800-
EASTCENTRAL PLAINS

CITY           SKY/WX    TMP DP  RH WIND       PRES   REMARKS
TUCUMCARI      PTCLDY    42  15  33 W3        29.98S
CANNON AFB     NOT AVBL
CLOVIS AIRPORT CLEAR     45  18  33 NW12      29.99S

$$
NMZ028-029-538-180800-
SOUTHEAST PLAINS

CITY           SKY/WX    TMP DP  RH WIND       PRES   REMARKS
ROSWELL        CLEAR     49  28  44 NW8       30.00R
ARTESIA        CLEAR     46  25  42 W8        29.97S
CARLSBAD       PTCLDY    53  23  31 W9        29.97R
HOBBS          PTCLDY    46  37  71 SW6       30.00S


$$


USA.gov is the U.S. government's official web portal to all federal, state and local government web resources and services.